Location: ????????
(55.6189°N, 38.3031°E)
Time: 13:32:31
(UTC+00:00)

Cosmos 1777 Rocket - Pass Details

Date: 15 November 2019
Orbit: 759 x 775 km, 74.0° (Epoch: 12 December)

Event Time Altitude Azimuth Distance (km) Brightness Sun altitude
Exits shadow 02:22:24 50° 291° (WNW) 968 4.1 -21.9°
Maximum altitude 02:22:45 51° 306° (NW) 957 4.1 -21.9°
Drops below altitude 10° 02:27:51 10° 22° (NNE) 2,305 6.7 -21.2°
Sets 02:30:18 0° 28° (NNE) 3,233 7.6 -20.8°
